Dewpoint
54 54 55 56 56 56 56 56 56 56 56 56 56 56 55 55 55 54 54 54 54 53 53 52 51 50 49 47 46 45 45 45 45 45 45 44 43 42 41 40 39 38 37 36 35 34 34 33 33 33 32 32 31 31 30 30 29 29 29 29 28 29 29 29 29 29 30 30 30
54 54 55 56 56 56 56 55 56 56 56 56 56 56 55 55 54 54 54 53 53 53 52 51 50 49 48 46 45 45 45 45 44 44 45 44 43 41 41 40 39 38 37 36 35 34 34 33 33 32 32 32 31 30 30 30 29 29 29 28 28 28 29 29 29 29 30 30 30
54 54 55 56 56 56 56 55 55 55 55 55 56 55 55 55 54 54 53 53 51 51 50 50 49 48 47 45 45 45 45 44 44 44 44 44 42 41 41 40 40 40 40 38 36 35 34 33 32 32 32 31 31 30 30 29 30 29 29 28 28 28 29 29 29 29 30 30 30
54 54 55 55 56 56 56 55 55 54 54 55 54 54 54 54 54 53 52 50 50 50 50 50 48 47 46 45 45 45 45 45 44 43 43 43 42 41 42 43 43 42 40 39 37 35 34 33 33 33 32 31 30 29 29 29 30 29 29 28 28 29 29 29 29 29 29 30 30
54 54 55 55 55 55 55 55 55 55 55 55 54 54 54 53 52 51 50 50 50 50 49 48 47 46 46 45 45 44 44 44 44 44 43 43 44 45 45 44 42 41 39 38 37 35 33 32 33 32 31 30 30 29 29 29 29 29 29 29 29 29 29 29 29 29 29 29 29
54 54 55 55 55 55 55 55 54 54 54 54 54 54 53 53 52 51 50 50 50 48 46 46 46 46 45 45 44 44 44 43 44 43 44 45 45 45 44 43 40 40 40 38 36 35 33 32 32 32 30 30 29 28 29 29 29 28 28 29 29 29 29 29 29 29 29 29 28
54 54 54 55 54 55 55 54 54 54 54 54 53 53 53 52 51 50 50 50 49 47 46 47 46 45 45 44 44 43 43 43 43 43 45 47 46 45 43 41 40 40 39 37 35 34 32 32 32 32 30 30 29 28 28 29 29 28 28 28 29 29 29 29 29 29 29 28 28
54 54 54 54 54 54 54 54 54 54 54 54 53 52 52 52 51 50 50 49 48 47 46 46 45 45 44 43 43 43 43 43 42 43 44 47 45 44 43 41 40 39 38 36 35 35 35 35 34 32 30 30 29 28 28 28 28 28 28 28 29 29 28 28 28 29 29 28 27
54 54 54 54 54 54 54 53 53 53 53 53 53 52 52 51 50 50 49 48 47 46 46 46 45 44 43 43 43 43 43 42 42 42 43 45 44 43 42 41 40 38 36 35 36 36 37 37 33 31 30 30 29 28 28 28 27 27 28 28 29 29 29 28 28 28 28 28 27
54 53 53 53 53 53 53 53 53 53 53 52 52 51 51 51 50 50 49 49 47 46 45 45 44 43 43 43 43 43 43 42 42 41 41 41 41 40 41 41 40 38 37 36 38 39 38 36 32 30 29 29 28 28 27 27 27 27 28 29 29 28 28 28 28 28 28 28 27
53 53 53 53 53 52 52 52 52 52 52 52 51 50 50 51 50 50 49 48 46 45 45 45 44 43 43 42 42 42 42 42 42 41 41 40 39 39 39 40 40 39 38 38 39 39 38 35 32 30 29 30 30 28 27 27 27 27 28 28 28 28 28 28 28 28 28 28 28
53 53 53 53 52 52 52 52 52 52 51 51 50 50 50 50 49 48 48 46 46 45 45 45 44 43 43 42 42 42 42 42 41 41 40 40 39 38 38 38 39 38 37 36 37 39 38 35 34 32 32 32 32 31 29 27 27 27 27 27 27 27 27 28 28 28 28 28 28
53 52 52 52 51 51 51 51 52 51 51 50 50 50 50 49 48 48 47 46 46 45 45 45 44 43 43 42 42 42 42 41 41 41 40 39 38 37 36 36 36 36 35 34 36 37 38 36 34 32 32 32 32 32 30 28 28 28 27 27 27 27 27 27 28 28 28 28 28
52 51 51 51 51 51 51 51 51 51 50 50 50 49 49 48 48 48 47 47 46 46 45 44 44 43 43 43 42 42 41 41 41 40 40 39 39 38 36 36 35 34 34 33 34 36 36 36 34 33 32 31 32 32 30 29 30 30 30 29 28 27 27 27 28 28 28 29 30
50 50 50 50 50 51 51 51 51 50 50 49 49 49 48 48 48 48 47 46 46 45 45 44 44 44 43 43 42 41 41 41 40 40 40 39 39 38 37 36 34 33 33 33 33 34 35 34 33 33 32 32 32 31 30 29 30 31 32 31 30 28 28 28 28 29 30 31 31
49 50 50 50 50 51 51 50 51 50 50 49 48 48 48 48 48 47 47 46 45 45 45 44 44 44 43 43 42 41 41 40 40 40 40 40 39 39 38 36 35 34 34 33 33 33 33 33 34 33 33 33 34 32 31 30 31 32 32 31 30 29 29 29 30 31 32 32 32
48 49 49 50 50 50 50 50 50 50 49 49 47 47 48 48 47 47 46 46 45 45 44 43 44 43 43 42 42 41 41 40 40 40 40 40 39 38 37 36 35 35 35 34 33 32 32 33 34 34 34 35 35 34 33 32 32 32 32 30 30 30 31 32 32 32 32 32 32
47 48 48 49 50 50 50 50 50 49 49 48 47 47 47 47 47 46 45 45 44 44 43 42 43 43 42 42 41 41 41 40 40 39 40 39 38 37 36 36 35 36 36 35 33 32 32 32 33 33 33 34 34 34 34 34 33 33 32 31 31 32 32 32 32 32 32 32 33
46 47 48 49 49 49 49 49 48 48 47 46 46 46 46 46 45 45 44 43 43 43 43 42 42 42 41 41 41 41 41 40 39 39 39 39 38 36 36 34 34 35 36 36 34 32 32 32 32 32 32 32 33 33 33 33 33 33 32 32 32 32 32 32 32 32 32 32 33
46 47 47 48 48 48 48 48 47 46 45 45 45 45 45 44 44 44 44 43 43 42 42 41 41 41 41 40 40 40 40 39 39 38 38 37 36 36 34 34 34 36 36 36 34 33 32 32 32 31 31 32 32 31 32 33 32 32 32 32 32 32 32 32 32 31 31 31 32
45 45 46 46 46 46 46 46 45 44 44 44 44 44 43 42 43 43 43 42 41 41 41 41 41 40 40 39 39 39 38 39 38 37 37 36 35 34 34 33 35 36 37 36 36 35 34 32 31 31 30 30 31 31 31 31 30 30 31 31 31 31 32 32 31 31 31 32 32
44 44 44 44 44 44 44 44 43 42 42 42 42 42 41 41 41 41 41 41 40 40 40 40 40 39 39 38 38 37 37 37 36 36 36 35 34 33 33 33 35 36 36 36 35 35 34 32 32 32 32 30 31 32 32 30 29 29 30 30 30 31 31 31 31 31 31 32 32
42 42 42 41 42 43 42 41 41 41 41 41 41 41 40 40 40 40 39 39 40 40 39 39 39 38 38 37 37 36 36 36 35 35 34 33 32 32 32 33 35 36 36 36 34 34 34 33 32 32 32 31 32 31 30 28 29 29 30 30 31 31 31 31 32 32 32 32 32
39 39 39 40 40 40 40 39 39 40 40 39 39 39 39 39 38 38 38 38 38 38 38 38 38 37 36 36 36 35 35 34 33 33 32 31 31 32 32 32 34 35 36 35 34 34 33 33 32 32 32 32 31 30 29 30 30 30 30 30 30 31 31 32 32 32 32 32 32
37 38 38 38 38 38 38 38 39 39 38 38 38 37 37 37 37 37 37 37 37 37 37 37 36 35 34 34 34 34 33 33 32 32 31 30 30 31 32 32 34 34 35 36 36 36 36 34 32 32 32 31 29 29 29 31 31 30 29 29 30 31 31 32 32 32 32 33 33
36 37 37 37 37 38 38 37 37 37 37 36 36 37 37 36 36 36 36 36 36 36 35 35 34 33 33 33 32 32 32 32 32 31 31 29 30 31 31 32 33 34 35 36 37 38 37 36 35 34 32 32 31 30 30 31 31 30 30 30 30 30 30 31 32 32 32 32 33
36 36 36 36 36 37 36 36 36 36 36 36 36 36 36 36 35 35 35 35 34 34 33 32 32 34 34 32 31 31 31 31 31 31 32 30 31 31 32 33 32 33 35 37 38 38 38 38 37 35 33 31 32 32 31 31 32 32 32 32 32 31 31 30 31 31 32 32 32
36 36 35 36 36 36 35 35 36 36 35 35 35 35 35 34 34 34 34 33 33 32 32 32 32 32 32 31 30 30 30 30 31 31 31 31 31 31 31 32 32 33 36 37 38 39 39 39 38 36 35 32 31 32 32 32 32 32 32 33 32 32 32 31 31 31 31 30 30
35 35 35 36 35 35 34 35 35 35 34 34 34 34 33 33 33 33 32 32 32 31 31 31 31 31 31 30 29 29 29 29 30 31 31 30 30 30 31 32 32 33 36 38 39 39 40 39 39 38 36 34 31 31 32 32 32 32 32 32 32 32 32 32 32 32 31 30 30
35 35 35 35 34 34 34 34 34 33 33 33 32 32 32 32 32 32 32 32 31 31 31 30 30 30 30 29 28 28 29 29 29 30 30 29 29 29 30 32 31 32 35 38 39 39 40 40 39 39 38 36 33 32 32 32 32 32 32 31 32 32 32 32 32 32 32 31 31
35 35 35 34 34 33 33 33 32 32 32 32 32 32 32 32 31 31 31 31 31 31 31 30 30 29 29 28 28 28 28 29 29 29 29 28 29 30 30 30 30 32 35 38 39 40 40 40 40 39 38 38 35 32 32 31 31 31 31 32 32 32 32 32 32 32 32 32 31
34 35 35 34 33 32 32 31 31 31 31 31 31 31 31 31 30 30 30 30 31 31 30 29 29 29 28 28 27 28 28 28 29 29 29 29 29 30 30 30 29 32 35 38 39 40 40 40 40 40 39 39 36 32 31 31 31 31 31 31 32 32 32 31 32 32 32 32 31
34 34 34 33 32 32 31 30 30 30 30 30 30 30 30 30 29 29 29 30 30 29 29 28 28 28 28 27 27 27 28 28 29 30 31 31 30 30 30 30 29 32 36 38 39 40 40 41 41 41 40 40 36 33 31 31 30 30 31 31 32 32 32 32 32 32 31 31 31
33 33 33 32 32 31 30 29 29 29 29 29 29 29 29 29 28 28 29 29 29 29 28 28 28 28 27 27 27 27 28 29 29 30 30 30 29 29 29 29 29 32 36 38 39 40 40 41 41 41 41 41 37 34 32 32 31 31 31 32 32 32 32 32 32 32 31 31 30
33 33 33 32 31 30 29 29 28 28 28 28 28 28 28 28 28 28 28 30 29 28 27 27 27 27 27 27 28 28 28 29 29 29 29 29 29 29 29 28 29 32 36 38 39 40 40 41 41 41 41 41 39 36 34 33 32 32 32 32 32 32 32 32 32 32 31 30 29
34 34 32 31 30 29 29 28 28 28 28 28 27 27 27 27 27 27 29 30 29 28 27 27 27 27 27 27 28 28 29 29 29 29 29 29 29 28 28 27 28 32 36 37 39 40 41 41 41 41 41 41 39 38 36 35 35 34 34 33 33 33 33 33 32 32 31 29 29
33 33 32 31 30 29 29 28 28 28 28 27 27 27 27 27 27 27 28 30 28 27 27 27 27 27 27 27 27 28 29 29 29 29 29 30 29 28 27 27 27 31 36 37 39 40 41 41 41 41 41 41 39 37 36 36 35 35 34 34 34 34 34 34 32 31 30 28 29
32 33 32 31 30 29 28 28 28 28 27 27 27 27 26 26 27 27 28 30 28 27 27 27 27 26 26 27 28 28 29 29 29 29 29 30 29 28 28 27 27 31 35 37 39 40 41 41 41 41 41 40 37 36 36 35 35 34 34 34 34 33 33 32 32 30 29 29 32
32 32 32 31 30 29 29 28 28 28 27 27 27 26 26 26 27 27 29 30 27 27 27 27 26 26 26 27 28 28 28 28 29 30 30 29 29 29 30 28 28 31 34 37 39 40 40 41 41 41 41 41 37 36 36 35 34 33 33 32 32 32 32 31 30 29 29 28 34
31 32 32 31 30 29 29 28 28 28 27 27 27 26 26 27 27 29 29 28 27 27 27 27 26 27 28 30 28 27 27 27 28 29 30 29 30 32 32 30 29 31 33 37 38 39 40 41 41 41 41 40 37 36 35 34 33 32 32 32 32 32 32 31 29 28 28 27 31
31 31 31 31 30 29 29 28 28 28 27 27 27 27 27 28 28 28 28 27 26 26 27 27 26 27 29 31 28 27 27 27 27 28 29 30 31 33 33 31 29 30 32 36 38 39 39 40 41 41 41 40 36 34 34 33 33 32 32 32 32 32 32 31 30 28 27 26 27